Weather History for KERY - April, 2014

Change the Weather History Date:

Tuesday, April 15, 2014

  Actual Average Record
Temperature  
Mean Temperature 14 °F -  
Max Temperature 23 °F 47 °F 73 °F (1942)
Min Temperature 4 °F 31 °F 4 °F (2014)
Degree Days  
Heating Degree Days 52    
Moisture  
Dew Point 10 °F    
Average Humidity 77    
Maximum Humidity 94    
Minimum Humidity 58    
Precipitation  
Precipitation 0.00 in - - ()
Sea Level Pressure  
Sea Level Pressure 30.01 in    
Wind  
Wind Speed 8 mph (NNW)    
Max Wind Speed 16 mph    
Max Gust Speed 21 mph    
Visibility 10 miles    
Events Snow    
Averages and records for this station are not official NWS values.
T = Trace of Precipitation, MM = Missing Value Source: NWS Daily Summary

Daily Weather History Graph

Daily Weather History Graph

Search for Another Location

Airport or City:

Trip Planner

Search our weather history database for the weather conditions in past years. The results will help you decide how hot, cold, wet, or windy it might be!

Date:

Astronomy

Apr. 15, 2014 Rise Set
Actual Time 6:55 AM EDT 8:29 PM EDT
Civil Twilight 6:23 AM EDT 9:00 PM EDT
Nautical Twilight 5:45 AM EDT 9:39 PM EDT
Astronomical Twilight 5:04 AM EDT 10:20 PM EDT
Moon 9:12 PM EDT (4/15) 7:02 AM EDT (4/15)
Length of Visible Light 14h 37m
Length of Day
13h 34m
Full, 100% of the Moon is Illuminated
Apr 15
Full
Apr 22
Last Quarter
Apr 29
New
May 6
First Quarter
May 14
Full

Hourly Weather History & Observations

Time (EDT) Temp. Windchill Dew Point Humidity Pressure Visibility Wind Dir Wind Speed Gust Speed Precip Events Conditions
12:15 AM 20.3 °F 10.6 °F 18.0 °F 91% 29.91 in 3.0 mi North 8.1 mph - N/A Snow Light Snow
12:35 AM 20.1 °F 10.3 °F 17.6 °F 90% 29.91 in 4.0 mi North 8.1 mph - N/A Snow Light Snow
12:54 AM 19.9 °F 7.9 °F 16.9 °F 88% 29.90 in 4.0 mi North 11.5 mph 17.3 mph N/A Snow Light Snow
1:14 AM 19.4 °F 9.5 °F 16.3 °F 88% 29.91 in 7.0 mi North 8.1 mph 18.4 mph N/A   Overcast
1:34 AM 19.0 °F 7.5 °F 16.2 °F 89% 29.91 in 7.0 mi North 10.4 mph - N/A   Overcast
1:55 AM 18.9 °F 8.8 °F 16.3 °F 90% 29.91 in 5.0 mi North 8.1 mph - N/A   Overcast
2:14 AM 18.5 °F 9.3 °F 15.8 °F 89% 29.91 in 7.0 mi North 6.9 mph - N/A   Overcast
2:35 AM 18.3 °F 8.2 °F 15.4 °F 89% 29.91 in 10.0 mi North 8.1 mph - N/A   Overcast
2:55 AM 17.8 °F 7.5 °F 14.9 °F 88% 29.91 in 10.0 mi North 8.1 mph - N/A   Overcast
3:14 AM 17.4 °F 8.0 °F 14.5 °F 88% 29.91 in 10.0 mi North 6.9 mph - N/A   Mostly Cloudy
3:35 AM 16.7 °F 7.2 °F 14.0 °F 89% 29.91 in 10.0 mi North 6.9 mph - N/A   Scattered Clouds
3:55 AM 16.2 °F 6.5 °F 13.1 °F 88% 29.91 in 10.0 mi North 6.9 mph - N/A   Clear
4:14 AM 15.8 °F 7.2 °F 12.7 °F 88% 29.91 in 10.0 mi North 5.8 mph - N/A   Clear
4:35 AM 14.9 °F 6.1 °F 12.2 °F 89% 29.91 in 10.0 mi North 5.8 mph - N/A   Clear
4:54 AM 14.2 °F 5.3 °F 11.7 °F 90% 29.91 in 10.0 mi North 5.8 mph - N/A   Clear
5:15 AM 14.0 °F 3.9 °F 11.1 °F 88% 29.91 in 10.0 mi North 6.9 mph - N/A   Clear
5:34 AM 13.6 °F 3.5 °F 10.4 °F 87% 29.92 in 10.0 mi NW 6.9 mph - N/A   Clear
5:55 AM 13.3 °F 4.2 °F 10.0 °F 87% 29.91 in 10.0 mi NNW 5.8 mph - N/A   Clear
6:15 AM 12.4 °F 4.6 °F 9.5 °F 88% 29.92 in 10.0 mi North 4.6 mph - N/A   Clear
6:34 AM 12.6 °F 3.4 °F 9.5 °F 88% 29.93 in 10.0 mi NNW 5.8 mph - N/A   Clear
6:55 AM 12.0 °F 2.7 °F 8.6 °F 86% 29.94 in 10.0 mi WNW 5.8 mph - N/A   Clear
7:15 AM 12.6 °F 1.1 °F 8.6 °F 84% 29.94 in 10.0 mi NW 8.1 mph - N/A   Scattered Clouds
7:34 AM 12.9 °F 3.8 °F 8.2 °F 82% 29.95 in 10.0 mi NW 5.8 mph - N/A   Clear
7:55 AM 14.0 °F 3.9 °F 8.8 °F 80% 29.96 in 10.0 mi NW 6.9 mph - N/A   Mostly Cloudy
8:14 AM 14.5 °F 4.6 °F 9.1 °F 79% 29.97 in 10.0 mi NNW 6.9 mph - N/A   Mostly Cloudy
8:35 AM 14.9 °F 3.1 °F 9.3 °F 79% 29.97 in 10.0 mi NNW 9.2 mph - N/A   Scattered Clouds
8:54 AM 15.4 °F 3.8 °F 9.5 °F 77% 29.98 in 10.0 mi NNW 9.2 mph 16.1 mph N/A   Clear
9:14 AM 15.8 °F 2.7 °F 9.3 °F 76% 29.98 in 10.0 mi NNW 11.5 mph 17.3 mph N/A   Clear
9:35 AM 16.2 °F 2.5 °F 9.0 °F 73% 29.98 in 7.0 mi NNW 12.7 mph 18.4 mph N/A   Scattered Clouds
9:54 AM 16.7 °F 4.5 °F 9.1 °F 72% 29.99 in 10.0 mi NNW 10.4 mph 18.4 mph N/A   Scattered Clouds
10:14 AM 17.1 °F 3.0 °F 8.8 °F 70% 29.98 in 10.0 mi NW 13.8 mph 19.6 mph N/A   Mostly Cloudy
10:35 AM 16.7 °F 6.2 °F 8.1 °F 69% 29.99 in 10.0 mi NNW 8.1 mph 19.6 mph N/A   Mostly Cloudy
10:55 AM 17.2 °F 4.5 °F 6.3 °F 62% 29.99 in 10.0 mi NNW 11.5 mph 20.7 mph N/A   Scattered Clouds
11:15 AM 17.6 °F 3.7 °F 7.3 °F 64% 30.00 in 10.0 mi North 13.8 mph 20.7 mph N/A   Scattered Clouds
11:35 AM 18.5 °F 4.9 °F 7.7 °F 63% 30.00 in 10.0 mi NNW 13.8 mph 19.6 mph N/A   Scattered Clouds
11:55 AM 18.7 °F 4.0 °F 8.2 °F 64% 30.00 in 10.0 mi North 16.1 mph - N/A   Scattered Clouds
12:14 PM 19.0 °F 7.5 °F 8.1 °F 62% 30.01 in 10.0 mi NNW 10.4 mph 18.4 mph N/A   Mostly Cloudy
12:55 PM 20.1 °F 7.5 °F 8.2 °F 60% 30.01 in 10.0 mi WNW 12.7 mph 19.6 mph N/A   Mostly Cloudy
1:14 PM 20.3 °F 10.6 °F 9.3 °F 63% 30.01 in 10.0 mi NW 8.1 mph 19.6 mph N/A   Mostly Cloudy
1:55 PM 21.0 °F 8.6 °F 9.5 °F 61% 30.02 in 10.0 mi NNW 12.7 mph 18.4 mph N/A   Mostly Cloudy
2:14 PM 20.7 °F 8.2 °F 8.2 °F 59% 30.02 in 10.0 mi NNW 12.7 mph 18.4 mph N/A   Mostly Cloudy
2:35 PM 21.2 °F 10.9 °F 9.9 °F 62% 30.02 in 10.0 mi NNW 9.2 mph - N/A   Overcast
2:54 PM 21.4 °F 9.7 °F 11.5 °F 66% 30.03 in 10.0 mi NNW 11.5 mph - N/A   Overcast
3:14 PM 22.1 °F 11.3 °F 11.3 °F 63% 30.03 in 10.0 mi NW 10.4 mph 17.3 mph N/A   Overcast
3:35 PM 22.3 °F 12.2 °F 10.8 °F 61% 30.03 in 10.0 mi NNW 9.2 mph 16.1 mph N/A   Overcast
3:54 PM 22.3 °F 12.2 °F 10.4 °F 60% 30.03 in 10.0 mi WNW 9.2 mph 20.7 mph N/A   Overcast
4:15 PM 22.1 °F 10.6 °F 9.7 °F 59% 30.03 in 10.0 mi NW 11.5 mph 20.7 mph N/A   Overcast
4:35 PM 22.6 °F 12.6 °F 10.9 °F 61% 30.04 in 10.0 mi NW 9.2 mph 16.1 mph N/A   Mostly Cloudy
4:54 PM 23.2 °F 12.6 °F 10.4 °F 58% 30.04 in 10.0 mi West 10.4 mph 17.3 mph N/A   Mostly Cloudy
5:14 PM 22.5 °F 12.4 °F 10.2 °F 59% 30.04 in 10.0 mi WNW 9.2 mph - N/A   Mostly Cloudy
5:35 PM 22.8 °F 15.5 °F 11.5 °F 62% 30.04 in 10.0 mi NW 5.8 mph 17.3 mph N/A   Mostly Cloudy
5:55 PM 23.2 °F 15.0 °F 11.3 °F 60% 30.05 in 10.0 mi NNW 6.9 mph - N/A   Mostly Cloudy
6:14 PM 22.6 °F 12.6 °F 13.1 °F 67% 30.05 in 10.0 mi North 9.2 mph - N/A   Mostly Cloudy
6:35 PM 21.9 °F 11.0 °F 12.4 °F 67% 30.06 in 10.0 mi NW 10.4 mph - N/A   Mostly Cloudy
6:55 PM 21.4 °F 12.8 °F 12.4 °F 68% 30.07 in 10.0 mi NNW 6.9 mph - N/A   Scattered Clouds
7:14 PM 20.3 °F 9.8 °F 11.8 °F 70% 30.07 in 10.0 mi North 9.2 mph - N/A   Scattered Clouds
7:35 PM 20.1 °F 12.3 °F 12.0 °F 71% 30.08 in 10.0 mi NNW 5.8 mph - N/A   Scattered Clouds
7:55 PM 18.9 °F 10.8 °F 11.7 °F 74% 30.09 in 10.0 mi North 5.8 mph - N/A   Clear
8:14 PM 18.0 °F 12.7 °F 11.8 °F 77% 30.10 in 10.0 mi North 3.5 mph - N/A   Clear
8:35 PM 17.2 °F - 11.5 °F 78% 30.11 in 10.0 mi Calm Calm - N/A   Clear
8:54 PM 17.2 °F - 11.1 °F 77% 30.12 in 10.0 mi Calm Calm - N/A   Clear
9:15 PM 15.3 °F - 10.6 °F 82% 30.12 in 10.0 mi Calm Calm - N/A   Clear
9:34 PM 12.2 °F - 8.6 °F 85% 30.13 in 10.0 mi Calm Calm - N/A   Clear
9:55 PM 9.3 °F - 6.4 °F 88% 30.14 in 10.0 mi Calm Calm - N/A   Clear
10:14 PM 7.3 °F - 5.7 °F 93% 30.15 in 10.0 mi Calm Calm - N/A   Clear
10:35 PM 8.1 °F - 6.6 °F 94% 30.15 in 10.0 mi Calm Calm - N/A   Clear
10:55 PM 7.5 °F 0.8 °F 5.9 °F 93% 30.16 in 10.0 mi SW 3.5 mph - N/A   Clear
11:14 PM 5.0 °F -4.1 °F 3.2 °F 92% 30.16 in 10.0 mi WSW 4.6 mph - N/A   Clear
11:35 PM 4.1 °F -3.2 °F 2.3 °F 92% 30.16 in 10.0 mi WSW 3.5 mph - N/A   Clear
11:55 PM 4.1 °F -5.1 °F 2.1 °F 91% 30.17 in 10.0 mi WSW 4.6 mph - N/A   Clear